Thayer, KS

6:13 AM CST on December 06, 2016 (GMT -0600)
Tri-City

Weather History for KPPF - May, 2014

Change the Weather History Date:

Saturday, May 24, 2014

  Actual Average Record
Temperature  
Mean Temperature 75 °F -  
Max Temperature 84 °F 77 °F 90 °F (1962)
Min Temperature 66 °F 57 °F 43 °F (2001)
Cooling Degree Days 10    
Growing Degree Days 25 (Base 50)    
Moisture  
Dew Point 65 °F    
Average Humidity 78    
Maximum Humidity 93    
Minimum Humidity 54    
Precipitation  
Precipitation 0.14 in - - ()
Sea Level Pressure  
Sea Level Pressure 30.01 in    
Wind  
Wind Speed 5 mph (SE)    
Max Wind Speed 12 mph    
Max Gust Speed -    
Visibility 9 miles    
Events Rain    
Averages and records for this station are not official NWS values.
T = Trace of Precipitation, MM = Missing Value Source: NWS Daily Summary

Daily Weather History Graph

Daily Weather History Graph

Search for Another Location

Airport or City:

Trip Planner

Search our weather history database for the weather conditions in past years. The results will help you decide how hot, cold, wet, or windy it might be!

Date:

Astronomy

May. 24, 2014 Rise Set
Actual Time 6:06 AM CDT 8:31 PM CDT
Civil Twilight 5:36 AM CDT 9:01 PM CDT
Nautical Twilight 5:00 AM CDT 9:38 PM CDT
Astronomical Twilight 4:19 AM CDT 10:19 PM CDT
Moon 3:30 AM CDT (5/24) 4:34 PM CDT (5/24)
Length of Visible Light 15h 24m
Length of Day
14h 24m
Waning Crescent, 18% of the Moon is Illuminated
May 24
Waning Crescent
May 28
New
Jun 5
First Quarter
Jun 12
Full
Jun 19
Last Quarter

Hourly Weather History & Observations

Time (CDT) Temp. Heat Index Dew Point Humidity Pressure Visibility Wind Dir Wind Speed Gust Speed Precip Events Conditions
12:52 AM 73.0 °F - 64.0 °F 73% 30.01 in 10.0 mi Variable 4.6 mph - N/A   Clear
1:52 AM 69.1 °F - 64.9 °F 87% 30.04 in 10.0 mi WSW 11.5 mph - 0.00 in Rain Light Rain
2:04 AM 68.0 °F - 66.0 °F 93% 30.05 in 3.0 mi West 5.8 mph - 0.05 in Rain Heavy Rain
2:52 AM 68.0 °F - 64.9 °F 90% 30.03 in 6.0 mi Calm Calm - 0.06 in Rain Light Rain
3:52 AM 66.9 °F - 64.9 °F 93% 30.01 in 7.0 mi NE 3.5 mph - 0.08 in   Overcast
4:52 AM 68.0 °F - 64.9 °F 90% 30.02 in 8.0 mi Variable 4.6 mph - N/A   Overcast
5:37 AM 68.0 °F - 64.9 °F 90% 30.05 in 6.0 mi Variable 3.5 mph - N/A   Overcast
5:52 AM 68.0 °F - 66.0 °F 93% 30.03 in 5.0 mi Variable 3.5 mph - N/A   Overcast
6:52 AM 68.0 °F - 64.9 °F 90% 30.04 in 7.0 mi Calm Calm - N/A   Overcast
7:52 AM 68.0 °F - 64.0 °F 87% 30.04 in 10.0 mi ESE 3.5 mph - 0.00 in   Overcast
8:52 AM 70.0 °F - 64.9 °F 84% 30.05 in 10.0 mi SE 3.5 mph - N/A   Mostly Cloudy
9:52 AM 71.1 °F - 64.9 °F 81% 30.06 in 10.0 mi SE 4.6 mph - N/A   Mostly Cloudy
10:52 AM 73.0 °F - 66.9 °F 81% 30.05 in 10.0 mi Variable 3.5 mph - N/A   Overcast
11:52 AM 77.0 °F - 68.0 °F 74% 30.04 in 10.0 mi Variable 6.9 mph - N/A   Overcast
12:52 PM 79.0 °F - 66.9 °F 66% 30.01 in 10.0 mi SE 5.8 mph - N/A   Scattered Clouds
1:52 PM 79.0 °F - 66.9 °F 66% 30.00 in 10.0 mi SSE 8.1 mph - N/A   Mostly Cloudy
2:52 PM 84.0 °F 86.3 °F 66.0 °F 55% 29.98 in 10.0 mi SE 8.1 mph - N/A   Scattered Clouds
3:52 PM 81.0 °F 82.2 °F 63.0 °F 54% 29.96 in 10.0 mi SSE 8.1 mph - 0.00 in   Mostly Cloudy
6:52 PM 77.0 °F - 64.0 °F 64% 29.95 in 10.0 mi SE 6.9 mph - N/A   Clear
7:52 PM 75.9 °F - 64.9 °F 69% 29.97 in 10.0 mi SSE 4.6 mph - N/A   Clear
8:52 PM 73.9 °F - 64.0 °F 71% 29.98 in 10.0 mi SSE 4.6 mph - N/A   Scattered Clouds
9:52 PM 73.0 °F - 64.0 °F 73% 29.97 in 10.0 mi SSE 5.8 mph - N/A   Partly Cloudy
10:52 PM 73.0 °F - 64.0 °F 73% 29.95 in 10.0 mi SE 8.1 mph - N/A   Clear
11:52 PM 72.0 °F - 64.9 °F 78% 29.97 in 10.0 mi South 5.8 mph - N/A   Clear